Greenwood, Nova Scotia

6:02 PM ADT on October 18, 2017 (GMT -0300)
Greenwood

Weather History for CYZX - January, 2013

Change the Weather History Date:

Monday, January 14, 2013

  Actual Average Record
Temperature  
Mean Temperature 44 °F -  
Max Temperature 52 °F 30 °F 62 °F (2005)
Min Temperature 36 °F 13 °F -9 °F (2015)
Degree Days  
Heating Degree Days 21    
Moisture  
Dew Point 43 °F    
Average Humidity 94    
Maximum Humidity 100    
Minimum Humidity 81    
Precipitation  
Precipitation 0.02 in 0.12 in - ()
Sea Level Pressure  
Sea Level Pressure 29.95 in    
Wind  
Wind Speed 6 mph ()    
Max Wind Speed 16 mph    
Max Gust Speed 24 mph    
Visibility 5.2 miles    
Events Fog , Rain    
Averages and records for this station are not official NWS values.
T = Trace of Precipitation, MM = Missing Value Source: Averaged Metar Reports

Daily Weather History Graph

Daily Weather History Graph

Search for Another Location

Airport or City:

Trip Planner

Search our weather history database for the weather conditions in past years. The results will help you decide how hot, cold, wet, or windy it might be!

Date:

Astronomy

Jan. 14, 2013 Rise Set
Actual Time 7:54 AM AST 5:03 PM AST
Civil Twilight 7:21 AM AST 5:36 PM AST
Nautical Twilight 6:45 AM AST 6:12 PM AST
Astronomical Twilight 6:10 AM AST 6:47 PM AST
Moon 9:15 AM AST (1/14) 8:56 PM AST (1/14)
Length of Visible Light 10h 14m
Length of Day
9h 08m
Waxing Crescent, 11% of the Moon is Illuminated
Jan 14
Waxing Crescent
Jan 18
First Quarter
Jan 27
Full
Feb 3
Last Quarter
Feb 10
New

Hourly Weather History & Observations

Time (AST) Temp. Windchill Dew Point Humidity Pressure Visibility Wind Dir Wind Speed Gust Speed Precip Events Conditions
12:00 AM 39.2 °F 37.0 °F 39.2 °F 100% 30.04 in 1.5 mi SSW 3.5 mph - N/A   Light Drizzle
12:08 AM - - - N/A% - 0.5 mi SSW 2.3 mph - N/A Fog Light Drizzle
12:31 AM - - - N/A% - 1.0 mi SSW 5.8 mph - N/A   Light Drizzle
1:00 AM 41.0 °F 37.1 °F 41.0 °F 100% 30.02 in 1.0 mi South 5.8 mph - N/A   Light Drizzle
1:12 AM - - - N/A% - 3.0 mi South 6.9 mph - N/A   Light Drizzle
1:29 AM - - - N/A% - 5.0 mi South 8.1 mph - N/A   Light Drizzle
2:00 AM 42 °F - 41 °F 97% 30.01 in 5 mi SW 5.8 mph - - Rain Light Drizzle
2:00 AM 42.8 °F 38.6 °F 41.0 °F 93% 30.01 in 5.0 mi SW 6.9 mph - N/A   Light Drizzle
3:00 AM 42.8 °F 39.3 °F 41.0 °F 93% 29.99 in 5.0 mi SSW 5.8 mph - N/A   Light Drizzle
3:32 AM - - - N/A% - 5.0 mi South 6.9 mph - N/A   Light Drizzle
4:00 AM 42.8 °F 38.0 °F 42.8 °F 100% 29.99 in 5.0 mi South 8.1 mph - N/A   Light Drizzle
4:31 AM - - - N/A% - 3.0 mi South 6.9 mph - N/A   Light Drizzle
5:00 AM 42.8 °F 39.3 °F 42.8 °F 100% 29.97 in 1.5 mi South 5.8 mph - N/A   Light Drizzle
5:24 AM - - - N/A% - 0.8 mi South 9.2 mph - N/A   Light Drizzle
6:00 AM 42.8 °F 39.3 °F 42.8 °F 100% 29.95 in 1.0 mi SSW 5.8 mph - N/A   Light Drizzle
7:00 AM 44.6 °F 40.7 °F 42.8 °F 93% 29.94 in 1.0 mi South 6.9 mph - N/A   Light Drizzle
7:07 AM - - - N/A% - 2.0 mi SSW 6.9 mph - N/A   Light Drizzle
7:29 AM - - - N/A% - 1.5 mi SSW 5.8 mph - N/A   Light Drizzle
8:00 AM 45 °F - 44 °F 96% 29.94 in 1 mi SSW 4.6 mph - - Rain Light Drizzle
8:00 AM 44.6 °F 40.7 °F 44.6 °F 100% 29.93 in 1.5 mi SSW 6.9 mph - N/A   Light Drizzle
8:13 AM - - - N/A% - 2.0 mi SSW 6.9 mph - N/A   Drizzle
9:00 AM 41.0 °F 39.0 °F 41.0 °F 100% 29.92 in 2.0 mi SW 3.5 mph - N/A   Light Drizzle
9:25 AM - - - N/A% - 3.0 mi South 5.8 mph - N/A   Overcast
10:00 AM 46.4 °F 41.9 °F 46.4 °F 100% 29.90 in 4.0 mi SW 9.2 mph - N/A   Overcast
10:34 AM - - - N/A% - 2.0 mi West 5.8 mph - N/A Fog Overcast
11:00 AM 46.4 °F 44.3 °F 46.4 °F 100% 29.90 in 0.5 mi SW 4.6 mph - N/A Fog Fog
11:16 AM - - - N/A% - 1.0 mi SW 5.8 mph - N/A Fog Overcast
11:22 AM - - - N/A% - 0.8 mi West 3.5 mph - N/A   Overcast
11:34 AM - - - N/A% - 2.0 mi SW 9.2 mph - N/A Fog Overcast
12:00 PM 51.8 °F - 50.0 °F 94% 29.87 in 3.0 mi SW 10.4 mph - N/A Fog Overcast
12:29 PM - - - N/A% - 3.0 mi SW 16.1 mph 21.9 mph N/A   Overcast
12:43 PM - - - N/A% - 8.0 mi SW 15.0 mph 23.0 mph N/A   Overcast
1:00 PM 53.6 °F - 50.0 °F 88% 29.84 in 10.0 mi SSW 12.7 mph - N/A   Overcast
2:00 PM 51 °F - 49 °F 91% 29.84 in 12 mi WSW 13.8 mph - -   Partly Cloudy
2:00 PM 50.0 °F - 50.0 °F 100% 29.84 in 12.0 mi SW 11.5 mph 18.4 mph N/A   Overcast
3:00 PM 48.2 °F - 46.4 °F 93% 29.86 in 12.0 mi West 9.2 mph - N/A   Overcast
4:00 PM 48.2 °F - 46.4 °F 93% 29.89 in 12.0 mi WSW 16.1 mph 24.2 mph N/A   Overcast
4:21 PM - - - N/A% - 8.0 mi SW 13.8 mph 19.6 mph N/A   Overcast
4:45 PM - - - N/A% - 8.0 mi SW 10.4 mph 17.3 mph N/A   Overcast
5:00 PM 46.4 °F 41.5 °F 46.4 °F 100% 29.92 in 8.0 mi SW 10.4 mph - N/A   Overcast
6:00 PM 46.4 °F 42.4 °F 46.4 °F 100% 29.94 in 8.0 mi SW 8.1 mph - N/A   Mostly Cloudy
7:00 PM 46.4 °F 41.1 °F 44.6 °F 93% 29.98 in 8.0 mi WSW 11.5 mph 17.3 mph N/A   Overcast
7:10 PM - - - N/A% - 12.0 mi SW 8.1 mph - N/A   Scattered Clouds
8:00 PM 45 °F - 41 °F 82% 30.01 in 12 mi WSW 8.1 mph - -   Scattered Clouds
8:00 PM 44.6 °F 40.2 °F 41.0 °F 87% 30.01 in 12.0 mi WSW 8.1 mph - N/A   Partly Cloudy
9:00 PM 42.8 °F 38.0 °F 37.4 °F 81% 30.01 in 12.0 mi SW 8.1 mph - N/A   Clear
10:00 PM 41.0 °F 36.4 °F 35.6 °F 81% 30.04 in 12.0 mi West 6.9 mph - N/A   Clear
11:00 PM 39.2 °F 33.0 °F 33.8 °F 81% 30.09 in 12.0 mi West 9.2 mph - N/A   Mostly Cloudy